[[{"header":{"parameterUnit":"m.s-1","parameterCategory":1,"la1":30.2991,"la2":30.254,"lo1":-89.0895,"lo2":-89.0444,"dy":0.0017,"dx":0.0017,"nx":28,"ny":28,"refTime":"2024-04-15T21:00:00:Z","depth":0,"parameterNumber":2,"parameterNumberName":"U-component_of_WINDS"},"data":[0,0,0,0,0,0,0,0,0,0,0,0,0,0,0,0,0,0,0,0,0,0,0,0,0,0,0,0,0,0,0,0,0,0,0,0,0,0,0,0,0,0,0,0,0,0,0,0,0,0,0,0,0,0,0,0,0,0,-1.3834,-1.3833,0,-1.3774,-1.3774,-1.3773,-1.3706,-1.3705,-1.3704,-1.3703,-1.3641,-1.364,-1.3639,0,0,0,0,0,0,0,0,0,0,0,0,0,-1.389,-1.3889,-1.3834,-1.3833,-1.3833,-1.3774,-1.3774,-1.3773,-1.3706,-1.3705,-1.3704,-1.3703,-1.3641,-1.364,-1.3639,0,0,0,0,0,0,0,0,0,0,0,0,0,-1.3851,-1.3889,-1.3834,-1.3792,-1.3788,-1.3775,-1.3773,-1.3772,-1.3707,-1.3705,-1.3704,-1.3702,-1.3641,-1.364,-1.3639,-1.3661,0,0,-1.3636,-1.3635,0,0,0,0,0,0,0,0,-1.3854,-1.3849,-1.3799,-1.3795,-1.379,-1.3746,-1.377,-1.3735,-1.3707,-1.3738,-1.3703,-1.3702,-1.3677,-1.3673,-1.3665,-1.3659,-1.3656,-1.3636,-1.3635,-1.3635,-1.3634,0,0,0,0,0,0,0,-1.3856,-1.3852,-1.381,-1.3799,-1.3793,-1.3776,-1.3769,-1.3763,-1.3716,-1.3735,-1.373,-1.3724,-1.3674,-1.3666,-1.3663,-1.3655,-1.3636,-1.3635,-1.3634,-1.3634,-1.3663,-1.3665,0,0,0,0,0,0,-1.3865,-1.3854,-1.3812,-1.3808,-1.3819,-1.3777,-1.3769,-1.3762,-1.3716,-1.3708,-1.3725,-1.3721,-1.3669,-1.3664,-1.366,-1.3683,-1.3635,-1.3633,-1.3633,-1.3662,-1.3664,-1.3665,0,0,0,0,0,0,-1.3867,-1.3862,-1.3815,-1.383,-1.3823,-1.3777,-1.377,-1.3761,-1.3753,-1.3709,-1.37,-1.3725,-1.3667,-1.3662,-1.3662,-1.368,-1.3633,-1.3632,-1.366,-1.3662,-1.3665,-1.3728,0,0,0,0,0,0,-1.3869,-1.3863,-1.3871,-1.3831,-1.3822,-1.3817,-1.3771,-1.3761,-1.3751,-1.3745,-1.3707,-1.3699,-1.3666,-1.3664,-1.3661,-1.3677,-1.3631,-1.3658,-1.3661,-1.3664,-1.3724,-1.3732,-1.3739,0,0,0,0,0,-1.3871,-1.3892,-1.3872,-1.3867,-1.3831,-1.3818,-1.3813,-1.3775,-1.3753,-1.3761,-1.3732,-1.37,-1.3679,-1.3664,-1.366,-1.3677,-1.3657,-1.366,-1.3664,-1.3721,-1.3731,-1.3739,0,0,0,0,0,0,-1.3935,-1.3885,-1.3863,-1.3871,-1.385,-1.3807,-1.3815,-1.3787,-1.3771,-1.3766,-1.3719,-1.3711,-1.3716,-1.3696,-1.3681,-1.3696,-1.3663,-1.3666,-1.3708,-1.3717,-1.3724,-1.3728,-1.363,0,0,0,0,0,-1.395,-1.3944,-1.3901,-1.3912,-1.3903,-1.3861,-1.3854,-1.3827,-1.3802,-1.3793,-1.3764,-1.3741,-1.3729,-1.3722,-1.3709,-1.3722,-1.3712,-1.3731,-1.3739,-1.3745,-1.3747,-1.3752,-1.376,-1.3676,-1.3676,-1.3676,0,0,-1.3981,-1.3953,-1.3952,-1.3924,-1.3904,-1.3899,-1.3854,-1.385,-1.3845,-1.3792,-1.379,-1.3768,-1.374,-1.3746,-1.3747,-1.373,-1.3768,-1.3749,-1.3754,-1.3753,-1.3756,-1.3764,-1.3771,-1.3678,-1.3678,-1.3678,0,0,-1.4034,-1.4013,-1.402,-1.4001,-1.3971,-1.3944,-1.3946,-1.3908,-1.3891,-1.3889,-1.3849,-1.3842,-1.3823,-1.3804,-1.3792,-1.3839,-1.3808,-1.3836,-1.3874,-1.3879,-1.3886,-1.3892,-1.3907,-1.3914,-1.3839,-1.3839,-1.3839,0,-1.4076,-1.4066,-1.4027,-1.4025,-1.4014,-1.3967,-1.3973,-1.3956,-1.3924,-1.3917,-1.3898,-1.3873,-1.385,-1.3851,-1.3863,-1.3855,-1.3855,-1.3839,-1.3888,-1.3894,-1.3898,-1.3913,-1.3919,-1.3842,-1.3842,-1.3842,-1.3841,0,-1.4119,-1.4113,-1.4122,-1.4092,-1.4082,-1.4085,-1.4045,-1.404,-1.4014,-1.3988,-1.3986,-1.3957,-1.3937,-1.3936,-1.391,-1.3933,-1.3923,-1.3897,-1.3863,-1.391,-1.3923,-1.3928,-1.3847,-1.3846,-1.3845,-1.3844,0,0,-1.4209,-1.4158,-1.4162,-1.4148,-1.4112,-1.4107,-1.4107,-1.4088,-1.4084,-1.4063,-1.4062,-1.4047,-1.4023,-1.4009,-1.3981,-1.3986,-1.4024,-1.3959,-1.3958,-1.3972,-1.4047,-1.4065,-1.4073,-1.4005,-1.4006,-1.4006,-1.4049,0,-1.4255,-1.4253,-1.4218,-1.4225,-1.4219,-1.4174,-1.4174,-1.4153,-1.4129,-1.412,-1.4094,-1.4083,-1.4053,-1.4044,-1.4047,-1.4019,-1.4039,-1.4016,-1.4002,-1.4002,-1.4009,-1.4079,-1.4099,-1.4141,-1.4054,-1.4054,-1.4055,0,-1.4308,-1.4291,-1.4298,-1.4263,-1.4259,-1.4259,-1.4239,-1.4231,-1.4205,-1.4188,-1.4173,-1.4142,-1.4139,-1.4109,-1.4104,-1.4089,-1.4082,-1.4067,-1.4068,-1.4064,-1.403,-1.4076,-1.4153,-1.4159,-1.4063,-1.4062,-1.4062,0,-1.4372,-1.4351,-1.4353,-1.4342,-1.4301,-1.4302,-1.4285,-1.4258,-1.4249,-1.4231,-1.4224,-1.4206,-1.4196,-1.4183,-1.4148,-1.4129,-1.4147,-1.4113,-1.4131,-1.4132,-1.4136,-1.4136,-1.4211,-1.4134,-1.4134,-1.4133,-1.4133,0,-1.4426,-1.4432,-1.4381,-1.4381,-1.4387,-1.4346,-1.4352,-1.4331,-1.4307,-1.4303,-1.4263,-1.426,-1.4214,-1.4205,-1.4178,-1.4178,-1.4174,-1.4159,-1.4151,-1.4162,-1.4163,-1.4155,-1.4151,-1.4135,-1.4135,-1.4134,-1.4134,0,-1.4498,-1.4464,-1.4462,-1.4424,-1.4414,-1.4419,-1.4386,-1.4385,-1.436,-1.4354,-1.4351,-1.4311,-1.4298,-1.4262,-1.4241,-1.4222,-1.423,-1.4216,-1.4238,-1.4233,-1.4253,-1.4251,-1.4324,-1.4331,-1.4251,-1.4252,-1.4252,0,-1.4534,-1.4537,-1.4499,-1.4494,-1.4478,-1.447,-1.446,-1.4421,-1.4412,-1.4384,-1.4386,-1.4371,-1.4356,-1.4339,-1.4307,-1.4291,-1.4275,-1.4302,-1.4272,-1.4283,-1.4274,-1.4274,-1.4274,-1.4308,-1.4309,-1.431,-1.4311,0,-1.4601,-1.4584,-1.4572,-1.4555,-1.4545,-1.4529,-1.451,-1.4508,-1.4464,-1.4456,-1.4443,-1.4432,-1.4411,-1.4396,-1.4374,-1.4356,-1.4326,-1.4321,-1.4324,-1.4334,-1.4346,-1.4339,-1.4255,-1.4319,-1.4318,-1.4318,-1.4317,-1.4317,-1.4655,-1.4656,-1.463,-1.4617,-1.46,-1.4584,-1.4581,-1.4555,-1.4544,-1.4523,-1.4501,-1.4491,-1.4465,-1.4433,-1.4417,-1.4408,-1.4392,-1.4397,-1.4397,-1.4399,-1.4404,-1.4349,-1.4404,-1.4404,-1.4403,-1.4403,-1.4403,0,-1.472,-1.4701,-1.469,-1.4666,-1.4656,-1.463,-1.4609,-1.4602,-1.4594,-1.4572,-1.4559,-1.4544,-1.453,-1.4498,-1.448,-1.4479,-1.4465,-1.4476,-1.4475,-1.4471,-1.4419,-1.4418,-1.4488,-1.4488,-1.4488,-1.4488,-1.4488,-1.4488,-1.4752,-1.4752,-1.4732,-1.4723,-1.4703,-1.4693,-1.4683,-1.4668,-1.4651,-1.4636,-1.4624,-1.4604,-1.4578,-1.4558,-1.4543,-1.4534,-1.4529,-1.4544,-1.4531,-1.4483,-1.4475,-1.4467,-1.4465,-1.4544,-1.4544,-1.4583,-1.4583,-1.4583]},{"header":{"parameterUnit":"m.s-1","parameterCategory":1,"la1":30.2991,"la2":30.254,"lo1":-89.0895,"lo2":-89.0444,"dy":0.0017,"dx":0.0017,"nx":28,"ny":28,"refTime":"2024-04-15T21:00:00:Z","depth":0,"parameterNumber":3,"parameterNumberName":"V-component_of_WINDS"},"data":[0,0,0,0,0,0,0,0,0,0,0,0,0,0,0,0,0,0,0,0,0,0,0,0,0,0,0,0,0,0,0,0,0,0,0,0,0,0,0,0,0,0,0,0,0,0,0,0,0,0,0,0,0,0,0,0,0,0,2.9394,2.9393,0,2.9382,2.9382,2.9382,2.9393,2.9394,2.9394,2.9395,2.9379,2.9378,2.9378,0,0,0,0,0,0,0,0,0,0,0,0,0,2.9424,2.9423,2.9394,2.9393,2.9393,2.9382,2.9382,2.9381,2.9393,2.9394,2.9394,2.9395,2.9379,2.9378,2.9377,0,0,0,0,0,0,0,0,0,0,0,0,0,2.9411,2.9423,2.9394,2.9398,2.9398,2.9382,2.9382,2.9381,2.9393,2.9394,2.9394,2.9395,2.938,2.9379,2.9377,2.9355,0,0,2.9373,2.9373,0,0,0,0,0,0,0,0,2.9412,2.941,2.9397,2.9397,2.9398,2.939,2.9387,2.9373,2.9393,2.9395,2.9395,2.9395,2.9382,2.9381,2.9377,2.9355,2.9354,2.9373,2.9373,2.9372,2.9372,0,0,0,0,0,0,0,2.9413,2.9411,2.9389,2.9397,2.9397,2.9399,2.9398,2.9384,2.9384,2.9395,2.9395,2.9394,2.9382,2.9378,2.9376,2.9354,2.9373,2.9372,2.9371,2.9371,2.9314,2.9314,0,0,0,0,0,0,2.9414,2.9411,2.9389,2.9388,2.9407,2.9398,2.9397,2.9392,2.9385,2.9384,2.9394,2.9395,2.938,2.9378,2.9376,2.9351,2.9372,2.9371,2.937,2.9315,2.9314,2.9313,0,0,0,0,0,0,2.9414,2.9411,2.939,2.94,2.9398,2.9397,2.9391,2.9391,2.9387,2.9384,2.9384,2.9389,2.938,2.9378,2.9361,2.935,2.937,2.9369,2.9316,2.9315,2.9314,2.9299,0,0,0,0,0,0,2.9415,2.9412,2.9404,2.94,2.9397,2.9375,2.939,2.939,2.9385,2.9386,2.938,2.9379,2.9381,2.9363,2.936,2.9349,2.9368,2.9317,2.9316,2.9314,2.9301,2.9298,2.9295,0,0,0,0,0,2.9416,2.9399,2.9403,2.9401,2.9387,2.9375,2.9373,2.9376,2.9384,2.9376,2.9374,2.938,2.9352,2.9361,2.9358,2.9346,2.9318,2.9316,2.9314,2.9302,2.9298,2.9295,0,0,0,0,0,0,2.94,2.9399,2.9403,2.9385,2.938,2.9377,2.9367,2.9372,2.9364,2.9365,2.9368,2.9366,2.9349,2.9346,2.9356,2.9325,2.9336,2.9334,2.9328,2.9324,2.9322,2.9323,2.9367,0,0,0,0,0,2.9395,2.9386,2.9385,2.9368,2.9366,2.9367,2.9361,2.9364,2.9359,2.9356,2.9353,2.9347,2.9337,2.9331,2.9321,2.93,2.9299,2.9291,2.9288,2.9286,2.9284,2.9273,2.927,2.9308,2.9308,2.9308,0,0,2.9383,2.9381,2.9375,2.9365,2.9362,2.9352,2.9365,2.9353,2.9346,2.9354,2.9339,2.9336,2.933,2.9311,2.9303,2.9308,2.9273,2.9284,2.9282,2.9281,2.9271,2.9267,2.9264,2.9307,2.9307,2.9307,0,0,2.9357,2.9354,2.9341,2.9338,2.9333,2.9334,2.9331,2.9327,2.9327,2.9311,2.9318,2.9309,2.9291,2.9287,2.9282,2.9255,2.926,2.9252,2.9238,2.9227,2.9224,2.9222,2.9213,2.9209,2.925,2.925,2.925,0,2.9342,2.9329,2.9333,2.9322,2.9318,2.9326,2.9313,2.9309,2.9301,2.9297,2.9304,2.9283,2.9279,2.926,2.9254,2.925,2.9246,2.9253,2.9225,2.9222,2.922,2.9211,2.9208,2.9249,2.9249,2.9249,2.9249,0,2.9311,2.9302,2.9291,2.9285,2.928,2.9267,2.9269,2.9263,2.9266,2.9267,2.9251,2.9247,2.9238,2.9233,2.9236,2.9214,2.9218,2.9225,2.9236,2.9215,2.9207,2.9204,2.9248,2.9248,2.9248,2.9248,0,0,2.9274,2.9272,2.9268,2.9265,2.9262,2.9254,2.9242,2.9234,2.9228,2.9223,2.9213,2.9199,2.9205,2.92,2.9202,2.9193,2.9173,2.9201,2.92,2.9196,2.915,2.9145,2.9141,2.9176,2.9176,2.9175,2.9151,0,2.9248,2.9228,2.9233,2.9213,2.9204,2.9213,2.9203,2.9199,2.9199,2.9191,2.919,2.9181,2.919,2.9187,2.9178,2.9177,2.9164,2.9179,2.9167,2.9166,2.9168,2.9137,2.9132,2.9109,2.9147,2.9147,2.9146,0,2.9215,2.921,2.9189,2.9188,2.9185,2.9175,2.9169,2.9161,2.9157,2.9158,2.9153,2.9157,2.9145,2.9156,2.914,2.915,2.9145,2.9144,2.9143,2.9142,2.9155,2.9135,2.9101,2.9098,2.9141,2.9142,2.9142,0,2.919,2.9178,2.9164,2.9162,2.916,2.9153,2.9152,2.9149,2.9144,2.9138,2.9135,2.9127,2.9123,2.9117,2.9119,2.9127,2.9102,2.9113,2.9102,2.9102,2.9096,2.9096,2.9061,2.9092,2.9092,2.9092,2.9093,0,2.916,2.9148,2.9154,2.9145,2.9132,2.9137,2.9123,2.9122,2.912,2.9111,2.9118,2.911,2.9113,2.9105,2.9106,2.9092,2.909,2.909,2.9091,2.909,2.909,2.9086,2.9088,2.9092,2.9092,2.9092,2.9092,0,2.913,2.9133,2.912,2.9119,2.9119,2.9109,2.9109,2.9101,2.9102,2.9091,2.9089,2.909,2.9081,2.9083,2.9072,2.9073,2.9056,2.9058,2.9058,2.9058,2.9047,2.9048,2.9008,2.9004,2.9038,2.9038,2.9038,0,2.9111,2.9102,2.9101,2.9097,2.9095,2.9088,2.9083,2.9088,2.9083,2.9079,2.9071,2.9063,2.9057,2.9042,2.9042,2.9034,2.9036,2.9023,2.9035,2.9035,2.9036,2.9037,2.9036,2.902,2.902,2.902,2.9019,0,2.9077,2.908,2.9074,2.9069,2.9064,2.9059,2.9056,2.9051,2.9056,2.905,2.9042,2.9037,2.9027,2.9019,2.9012,2.901,2.9015,2.9016,2.9013,2.9012,2.9012,2.9012,2.9052,2.9016,2.9017,2.9017,2.9017,2.9017,2.9052,2.9045,2.9044,2.9037,2.9035,2.9032,2.9025,2.9026,2.9019,2.9013,2.9016,2.9006,2.9003,2.8995,2.8992,2.8984,2.8989,2.8984,2.8983,2.8982,2.8981,2.9013,2.8983,2.8983,2.8983,2.8983,2.8983,0,2.9019,2.9019,2.9013,2.9009,2.9003,2.901,2.9007,2.9002,2.8994,2.8991,2.8985,2.8976,2.8968,2.8968,2.8961,2.8955,2.8957,2.8953,2.8953,2.8953,2.8977,2.898,2.8951,2.8951,2.8951,2.8951,2.8951,2.8951,2.9001,2.8989,2.8992,2.8979,2.8979,2.8971,2.8968,2.8966,2.8964,2.8953,2.8948,2.8948,2.8946,2.8939,2.8933,2.8933,2.893,2.8925,2.8925,2.8948,2.8951,2.8954,2.8957,2.8924,2.8924,2.8902,2.8902,2.8902]}]]